Winnemucca, NV

4:38 PM PDT on April 24, 2018 (GMT -0700)
Winnemucca Municipal

Weather History for KWMC - October, 2011

Change the Weather History Date:

Wednesday, October 19, 2011

  Actual Average Record
Temperature  
Mean Temperature 51 °F 47 °F  
Max Temperature 73 °F 66 °F 84 °F (1927)
Min Temperature 28 °F 29 °F 15 °F (1932)
Degree Days  
Heating Degree Days 14 18  
Month to date heating degree days 235 276  
Since 1 July heating degree days 297 480  
Cooling Degree Days 0 0  
Month to date cooling degree days 2 0  
Year to date cooling degree days 449 541  
Moisture  
Dew Point 24 °F    
Average Humidity 39    
Maximum Humidity 63    
Minimum Humidity 15    
Precipitation  
Precipitation 0.00 in 0.03 in 0.58 in (1957)
Month to date precipitation 0.55 0.40  
Year to date precipitation 8.57 6.20  
Snow  
Snow 0.00 in 0.00 in 0.80 in (1984)
Month to date snowfall 0.0 0.2  
Since 1 July snowfall 0.0 0.2  
Since 1 September snowfall 0.0 0.2  
Snow Depth 0.00 in    
Sea Level Pressure  
Sea Level Pressure 30.02 in    
Wind  
Wind Speed 6 mph (SSW)    
Max Wind Speed 21 mph    
Max Gust Speed 29 mph    
Visibility 10 miles    
Events      
T = Trace of Precipitation, MM = Missing Value Source: NWS Daily Summary

Daily Weather History Graph

Daily Weather History Graph

Search for Another Location

Airport or City:

Astronomy

Oct. 19, 2011 Rise Set
Actual Time 7:06 AM PDT 6:04 PM PDT
Civil Twilight 6:38 AM PDT 6:32 PM PDT
Nautical Twilight 6:07 AM PDT 7:04 PM PDT
Astronomical Twilight 5:35 AM PDT 7:36 PM PDT
Moon 11:54 PM PDT (10/19) 1:41 PM PDT (10/19)
Length of Visible Light 11h 53m
Length of Day
10h 58m
Waning Gibbous, 54% of the Moon is Illuminated
Oct 19
Waning Gibbous
Oct 19
Last Quarter
Oct 26
New
Nov 2
First Quarter
Nov 10
Full

Hourly Weather History & Observations

Time (PDT) Temp. Windchill Dew Point Humidity Pressure Visibility Wind Dir Wind Speed Gust Speed Precip Events Conditions
12:56 AM 37.0 °F - 19.9 °F 50% 30.01 in 10.0 mi Calm Calm - N/A   Clear
1:56 AM 32.0 °F - 18.0 °F 56% 30.02 in 10.0 mi Calm Calm - N/A   Clear
2:56 AM 28.0 °F 20.8 °F 17.1 °F 63% 30.01 in 10.0 mi SSE 6.9 mph - N/A   Clear
3:56 AM 30.0 °F 25.2 °F 18.0 °F 61% 30.01 in 10.0 mi South 4.6 mph - N/A   Clear
4:56 AM 32.0 °F 26.4 °F 19.0 °F 59% 30.01 in 10.0 mi SE 5.8 mph - N/A   Clear
5:56 AM 30.9 °F 25.2 °F 19.0 °F 61% 30.02 in 10.0 mi SE 5.8 mph - N/A   Clear
6:56 AM 32.0 °F - 19.0 °F 59% 30.06 in 10.0 mi Calm Calm - N/A   Clear
7:56 AM 36.0 °F 33.3 °F 21.0 °F 55% 30.06 in 10.0 mi ESE 3.5 mph - N/A   Mostly Cloudy
9:56 AM 54.0 °F - 24.1 °F 31% 30.05 in 10.0 mi Calm Calm - N/A   Clear
10:56 AM 62.1 °F - 24.1 °F 23% 30.01 in 10.0 mi Calm Calm - N/A   Clear
11:56 AM 70.0 °F - 30.0 °F 23% 29.99 in 10.0 mi WNW 6.9 mph - 0.00 in   Clear
12:56 PM 73.0 °F - 28.9 °F 20% 29.97 in 10.0 mi SW 11.5 mph - 0.00 in   Partly Cloudy
1:56 PM 73.0 °F - 25.0 °F 17% 29.97 in 8.0 mi WNW 16.1 mph 25.3 mph 0.00 in   Clear
2:56 PM 73.0 °F - 28.0 °F 19% 29.98 in 10.0 mi WNW 15.0 mph 24.2 mph 0.00 in   Clear
3:56 PM 72.0 °F - 21.9 °F 15% 29.99 in 10.0 mi West 10.4 mph 19.6 mph 0.00 in   Clear
4:56 PM 70.0 °F - 28.0 °F 21% 29.99 in 9.0 mi NW 5.8 mph - N/A   Clear
5:56 PM 64.0 °F - 30.0 °F 28% 30.02 in 10.0 mi NNE 4.6 mph - N/A   Clear
6:56 PM 48.9 °F - 28.0 °F 44% 30.06 in 10.0 mi WSW 3.5 mph - N/A   Clear
7:56 PM 48.0 °F - 28.0 °F 46% 30.07 in 10.0 mi SW 3.5 mph - N/A   Clear
8:56 PM 43.0 °F 38.8 °F 27.0 °F 53% 30.08 in 10.0 mi SSE 6.9 mph - N/A   Clear
9:56 PM 44.1 °F 40.8 °F 27.0 °F 51% 30.06 in 10.0 mi SSE 5.8 mph - N/A   Clear
10:56 PM 39.9 °F 33.4 °F 24.1 °F 53% 30.06 in 10.0 mi SSE 10.4 mph - 0.01 in   Clear
11:56 PM 41.0 °F 37.1 °F 26.1 °F 55% 30.05 in 10.0 mi SE 5.8 mph - N/A   Clear